Back to catalog

STARLINK-11587

AliveCommunicationsVLEO
NORAD 63310·PAYLOAD·🇺🇸 United States

Launched Mar 18, 2025 from Cape Canaveral Space Force Station

Loading…

Next Passes (next 24 hours)

TLE

FreshSource: CelesTrak SupGP

Epoch: Sep 15, 2026, 02:05 UTC

1 63310C 25057D   26258.08729167 -.00044766  00000+0 -34769-3 0  2583
2 63310  43.0004 203.2475 0001489 257.1661  12.7564 15.70861829    12

Track STARLINK-11587 in real time with AllMySat

Download on the App Store